Regional Weather Roundup
Issued by NWS Bismarck, ND

Home | Current Version | Previous Version | Text Only | Print | Product List | Glossary On
Versions: 1 2 3 4 5 6 7 8 9 10 11 12 13 14 15 16 17 18 19 20 21 22 23 24 25 26 27 28 29 30 31 32 33 34 35 36 37 38 39 40 41 42 43 44 45 46 47 48 49 50
000
ASUS43 KBIS 270710
RWRBIS

NWR BROADCAST TEXT
NATIONAL WEATHER SERVICE BISMARCK ND
200 AM CDT MON MAR 27 2017

NOTE: "FAIR" INDICATES FEW OR NO CLOUDS BELOW 12,000 FEET WITH NO
SIGNIFICANT WEATHER AND/OR OBSTRUCTIONS TO VISIBILITY.


CITY           SKY/WX    TMP DP  RH WIND       PRES   REMARKS
WILLISTON      MOCLDY    35  29  78 CALM      29.88F
MINOT          FAIR      36  34  92 N7        29.88R
MINOT AFB      FAIR      32  31  95 CALM      29.87S
BISMARCK       FAIR      34  31  88 NE8       29.93S
DICKINSON      FAIR      33  29  85 S7        29.86S
GARRISON         N/A     43  33  68 CALM      29.88S
HETTINGER ARPT FAIR      37  32  82 CALM      29.91S
JAMESTOWN      FAIR      34  34 100 S3        29.93S
HAZEN          FAIR      39  34  81 CALM      29.91F
LINTON           N/A     34  34 100 E6        29.94F
MANDAN         FAIR      41  34  75 S6        29.92F
STANLEY        FAIR      34  34 100 CALM      29.90S
TIOGA          FAIR      34  34 100 W6        29.89S
WATFORD CITY   FAIR      32  28  86 CALM      29.88S
$$

CITY           SKY/WX    TMP DP  RH WIND       PRES   REMARKS
GRAND FORKS    CLOUDY    40  39  97 CALM      29.96S
GRAND FORKS AF CLOUDY    34  34 100 CALM      29.96S FOG
DEVILS LAKE    FOG       34  32  93 SE3       29.94S VSB 1/2
FARGO          FAIR      35  33  92 CALM      29.95S
CAVALIER       FOG       30  30 100 CALM      29.96S VSB<1/4
GRAFTON        FOG       34  34 100 CALM      29.99R VSB<1/4
GWINNER        SUNNY     36  36 100 MISG      29.96S
LANGDON        FAIR      30  30 100 CALM      29.94S
ROLLA          CLOUDY    34  34 100 SE3       29.93F
$$

CITY           SKY/WX    TMP DP  RH WIND       PRES   REMARKS
ABERDEEN       CLOUDY    38  34  85 SW3       29.96F
MOBRIDGE       FAIR      43  36  76 SE7       29.90F
BUFFALO          N/A     40  35  83 S3        29.83F
RAPID CITY     FOG       34  34 100 CALM      29.92F VSB 1/4
GLASGOW        FAIR      36  24  62 SE3       29.86S
SIDNEY         MOCLDY    38  27  64 CALM      29.88F
WOLF POINT     CLOUDY    36  29  75 CALM      29.88S
GLENDIVE       FAIR      34  26  72 N3        29.88S
MILES CITY     FAIR      42  31  64 NE7       29.84F
BAKER          CLOUDY    38  33  82 N10       29.89S
$$

CITY           SKY/WX    TMP DP  RH WIND       PRES   REMARKS
BILLINGS       CLOUDY    49  31  49 S8        29.79F
GREAT FALLS    CLOUDY    41  18  39 E7        29.78F
REGINA         FOG       30  30 100 N8        29.88S VSB 1/2
ESTEVAN        CLEAR     28  28 100 E6        29.87F
$$




USA.gov is the U.S. government's official web portal to all federal, state and local government web resources and services.